Immokalee Regional Airport [I, FL

8:06 PM EDT on May 26, 2018 (GMT -0400)
Immokalee

Weather History for KIMM - November, 2013

Change the Weather History Date:

Monday, November 18, 2013

  Actual Average (KRSW) Record (KRSW)
Temperature  
Mean Temperature 74 °F -  
Max Temperature 87 °F 81 °F 89 °F (1948)
Min Temperature 62 °F 61 °F 40 °F (1951)
Cooling Degree Days 10    
Growing Degree Days 24 (Base 50)    
Moisture  
Dew Point 71 °F    
Average Humidity 75    
Maximum Humidity 100    
Minimum Humidity 49    
Precipitation  
Precipitation 0.00 in - - ()
Sea Level Pressure  
Sea Level Pressure 30.00 in    
Wind  
Wind Speed 0 mph ()    
Max Wind Speed 6 mph    
Max Gust Speed -    
Visibility 9.1 miles    
Events      
Averages and records for this station are not official NWS values.
T = Trace of Precipitation, MM = Missing Value Source: Averaged Metar Reports

Daily Weather History Graph

Daily Weather History Graph

Search for Another Location

Airport or City:

Astronomy

Nov. 18, 2013 Rise Set
Actual Time 6:46 AM EST 5:34 PM EST
Civil Twilight 6:22 AM EST 5:59 PM EST
Nautical Twilight 5:54 AM EST 6:27 PM EST
Astronomical Twilight 5:26 AM EST 6:54 PM EST
Moon 6:37 PM EST (11/18) 7:33 AM EST (11/18)
Length of Visible Light 11h 36m
Length of Day
10h 47m
Full, 99% of the Moon is Illuminated
Nov 18
Full
Nov 25
Last Quarter
Dec 2
New
Dec 9
First Quarter
Dec 17
Full

Hourly Weather History & Observations

Time (EST) Temp. Heat Index Dew Point Humidity Pressure Visibility Wind Dir Wind Speed Gust Speed Precip Events Conditions
12:15 AM 66.2 °F - - N/A% 30.05 in 10.0 mi Calm Calm - 0.00 in   Scattered Clouds
12:35 AM 68.0 °F - - N/A% 30.04 in 10.0 mi Calm Calm - 0.00 in   Clear
12:55 AM 66.2 °F - - N/A% 30.04 in 10.0 mi Calm Calm - 0.00 in   Clear
1:15 AM 66.2 °F - - N/A% 30.04 in 10.0 mi Calm Calm - 0.00 in   Clear
1:35 AM 66.2 °F - - N/A% 30.04 in 10.0 mi Calm Calm - 0.00 in   Clear
1:55 AM 66.2 °F - - N/A% 30.03 in 10.0 mi Calm Calm - 0.00 in   Clear
2:15 AM 64.4 °F - - N/A% 30.02 in 8.0 mi Calm Calm - 0.00 in   Clear
2:35 AM 64.4 °F - - N/A% 30.02 in 9.0 mi Calm Calm - 0.00 in   Clear
2:55 AM 64.4 °F - - N/A% 30.02 in 9.0 mi Calm Calm - 0.00 in   Clear
3:15 AM 64.4 °F - - N/A% 30.03 in 9.0 mi Calm Calm - 0.00 in   Clear
3:35 AM 64.4 °F - - N/A% 30.02 in 10.0 mi Calm Calm - 0.00 in   Clear
3:55 AM 64.4 °F - - N/A% 30.02 in 7.0 mi Calm Calm - 0.00 in   Clear
4:15 AM 64.4 °F - - N/A% 30.02 in 4.0 mi Calm Calm - 0.00 in   Clear
4:35 AM 64.4 °F - - N/A% 30.01 in 3.0 mi Calm Calm - 0.00 in   Clear
4:55 AM 62.6 °F - - N/A% 30.01 in 0.8 mi Calm Calm - 0.00 in   Unknown
5:15 AM 62.6 °F - - N/A% 30.01 in 7.0 mi Calm Calm - 0.00 in   Clear
5:35 AM 62.6 °F - - N/A% 30.01 in 10.0 mi Calm Calm - 0.00 in   Clear
5:55 AM 62.6 °F - - N/A% 30.02 in 10.0 mi Calm Calm - 0.00 in   Clear
6:15 AM 62.6 °F - - N/A% 30.02 in 8.0 mi Calm Calm - 0.00 in   Clear
6:35 AM 62.6 °F - - N/A% 30.02 in 5.0 mi Calm Calm - 0.00 in   Clear
6:55 AM 64.4 °F - - N/A% 30.03 in 3.0 mi Calm Calm - 0.00 in   Clear
7:15 AM 64.4 °F - - N/A% 30.03 in 2.5 mi Calm Calm - 0.00 in   Clear
7:35 AM 66.2 °F - - N/A% 30.03 in 9.0 mi Calm Calm - 0.00 in   Clear
7:55 AM 69.8 °F - - N/A% 30.03 in 10.0 mi Calm Calm - 0.00 in   Clear
8:15 AM 73.4 °F - - N/A% 30.04 in 10.0 mi NNE 5.8 mph - 0.00 in   Clear
8:35 AM 75.2 °F - 75.2 °F 100% 30.04 in 10.0 mi Calm Calm - 0.00 in   Clear
8:55 AM 78.8 °F - 78.8 °F 100% 30.05 in 10.0 mi NNE 4.6 mph - 0.00 in   Clear
9:15 AM 80.6 °F 87.1 °F 77.0 °F 89% 30.06 in 10.0 mi Calm Calm - 0.00 in   Clear
9:35 AM 82.4 °F 89.5 °F 75.2 °F 79% 30.05 in 10.0 mi Calm Calm - 0.00 in   Clear
9:55 AM 84.2 °F 92.3 °F 75.2 °F 74% 30.05 in 10.0 mi Calm Calm - 0.00 in   Clear
10:15 AM 82.4 °F 88.2 °F 73.4 °F 74% 30.05 in 10.0 mi Calm Calm - 0.00 in   Mostly Cloudy
10:35 AM 86.0 °F 91.8 °F 71.6 °F 62% 30.05 in 8.0 mi Calm Calm - 0.00 in   Scattered Clouds
10:55 AM 86.0 °F 91.8 °F 71.6 °F 62% 30.04 in 10.0 mi Calm Calm - 0.00 in   Mostly Cloudy
11:15 AM 84.2 °F 88.4 °F 69.8 °F 62% 30.04 in 10.0 mi Calm Calm - 0.00 in   Scattered Clouds
11:35 AM 84.2 °F 88.4 °F 69.8 °F 62% 30.03 in 10.0 mi Calm Calm - 0.00 in   Scattered Clouds
11:55 AM 87.8 °F 92.6 °F 69.8 °F 55% 30.02 in 10.0 mi Calm Calm - 0.00 in   Partly Cloudy
12:15 PM 87.8 °F 91.4 °F 68.0 °F 52% 30.00 in 10.0 mi SSE 5.8 mph - 0.00 in   Partly Cloudy
12:35 PM 87.8 °F 90.4 °F 66.2 °F 49% 29.99 in 10.0 mi SE 5.8 mph - 0.00 in   Partly Cloudy
12:55 PM 87.8 °F 91.4 °F 68.0 °F 52% 29.98 in 10.0 mi Calm Calm - 0.00 in   Clear
1:15 PM 84.2 °F 87.3 °F 68.0 °F 58% 29.98 in 10.0 mi Calm Calm - 0.00 in   Clear
1:35 PM 86.0 °F 89.4 °F 68.0 °F 55% 29.97 in 10.0 mi Calm Calm - 0.00 in   Mostly Cloudy
1:55 PM 87.8 °F 90.4 °F 66.2 °F 49% 29.96 in 10.0 mi Calm Calm - 0.00 in   Mostly Cloudy
2:15 PM 86.0 °F 88.2 °F 66.2 °F 51% 29.96 in 10.0 mi Calm Calm - 0.00 in   Partly Cloudy
2:35 PM 87.8 °F 90.4 °F 66.2 °F 49% 29.95 in 10.0 mi Calm Calm - 0.00 in   Clear
2:55 PM 86.0 °F 89.4 °F 68.0 °F 55% 29.94 in 10.0 mi Calm Calm - 0.00 in   Partly Cloudy
3:15 PM 86.0 °F 88.2 °F 66.2 °F 51% 29.94 in 10.0 mi Calm Calm - 0.00 in   Scattered Clouds
3:35 PM 87.8 °F 92.6 °F 69.8 °F 55% 29.94 in 10.0 mi Calm Calm - 0.00 in   Scattered Clouds
3:55 PM 84.2 °F 87.3 °F 68.0 °F 58% 29.94 in 10.0 mi Calm Calm - 0.00 in   Scattered Clouds
4:15 PM 86.0 °F 89.4 °F 68.0 °F 55% 29.94 in 9.0 mi Calm Calm - 0.00 in   Scattered Clouds
4:35 PM 86.0 °F 89.4 °F 68.0 °F 55% 29.94 in 8.0 mi Calm Calm - 0.00 in   Mostly Cloudy
4:55 PM 87.8 °F 91.4 °F 68.0 °F 52% 29.94 in 10.0 mi Calm Calm - 0.00 in   Partly Cloudy
5:15 PM 87.8 °F 91.4 °F 68.0 °F 52% 29.94 in 10.0 mi Calm Calm - 0.00 in   Scattered Clouds
5:35 PM 82.4 °F 87.2 °F 71.6 °F 70% 29.94 in 8.0 mi WNW 5.8 mph - 0.00 in   Mostly Cloudy
5:55 PM 80.6 °F 85.4 °F 73.4 °F 79% 29.95 in 10.0 mi West 5.8 mph - 0.00 in   Mostly Cloudy
6:15 PM 78.8 °F - 71.6 °F 78% 29.95 in 10.0 mi West 4.6 mph - 0.00 in   Clear
6:35 PM 78.8 °F - 73.4 °F 83% 29.96 in 10.0 mi Calm Calm - 0.00 in   Scattered Clouds
6:55 PM 77.0 °F - 71.6 °F 83% 29.96 in 10.0 mi West 5.8 mph - 0.00 in   Scattered Clouds
7:15 PM 75.2 °F - 73.4 °F 94% 29.97 in 10.0 mi West 4.6 mph - 0.00 in   Scattered Clouds
7:35 PM 75.2 °F - 73.4 °F 94% 29.97 in 10.0 mi Calm Calm - 0.00 in   Partly Cloudy
7:55 PM 75.2 °F - 73.4 °F 94% 29.97 in 10.0 mi NW 3.5 mph - 0.00 in   Mostly Cloudy
8:15 PM 75.2 °F - 73.4 °F 94% 29.98 in 10.0 mi Calm Calm - 0.00 in   Mostly Cloudy
8:35 PM 75.2 °F - 71.6 °F 89% 29.98 in 10.0 mi Calm Calm - 0.00 in   Overcast
8:55 PM 75.2 °F - 73.4 °F 94% 29.98 in 10.0 mi Calm Calm - 0.00 in   Overcast
9:15 PM 75.2 °F - 73.4 °F 94% 29.98 in 10.0 mi Calm Calm - 0.00 in   Overcast
9:35 PM 73.4 °F - 73.4 °F 100% 29.98 in 10.0 mi Calm Calm - 0.00 in   Overcast
9:55 PM 73.4 °F - 73.4 °F 100% 29.98 in 10.0 mi Calm Calm - 0.00 in   Mostly Cloudy
10:15 PM 73.4 °F - 73.4 °F 100% 29.97 in 10.0 mi Calm Calm - 0.00 in   Mostly Cloudy
10:35 PM 73.4 °F - 73.4 °F 100% 29.97 in 10.0 mi Calm Calm - 0.00 in   Overcast
10:55 PM 73.4 °F - 73.4 °F 100% 29.97 in 10.0 mi Calm Calm - 0.00 in   Overcast
11:15 PM 73.4 °F - 73.4 °F 100% 29.97 in 10.0 mi Calm Calm - 0.00 in   Mostly Cloudy
11:35 PM 73.4 °F - 73.4 °F 100% 29.97 in 10.0 mi WNW 3.5 mph - 0.00 in   Mostly Cloudy
11:55 PM 73.4 °F - 73.4 °F 100% 29.96 in 10.0 mi Calm Calm - 0.00 in   Overcast